Шальчининкай

Литва     54°18′23″N   25°23′05″E
темп.,
°C
ветер,
м/с
пор.,
м/с
влажн.,
%
обл.,
%
осадки,
мм/ч
давл.,
гПа
погр.,
м
7 мая, пт
пт700:00+3ююз41088100 0.1 1007181
03:00+3ююз498897 0.4 1007186
06:00+2ююз3694100 0.0 1007119
09:00+6ю4684100 0.0 1007358
12:00+7ю5581100 0.5 1006894
15:00+5ссв1193100 4.8 1006274
18:00+5с3395100 1.9 1005640
21:00+5сз129539 1.9 1006106
8 мая, сб
сб800:00+2з22955 0.0 100612
03:00+2зюз229797 0.0 100839
06:00+1сз3895100 0.0 1009215
09:00+4ссз688197 0.0 1010685
12:00+7сз695967 0.1 10121600
15:00+10сз7947100 0.1 10132374
18:00+8зсз68645 0.2 10151164
21:00+4зсз358510 0.4 101779
9 мая, вс
вс900:00+2зсз36945 0.0 1018115
03:00+1зсз34965 0.0 102073
06:00+1з229785 0.0 102234
09:00+6зюз348011 0.0 1023437
12:00+10юз445150 0.0 10231235
15:00+12юз45499 0.0 10221763
18:00+13ююз46545 0.0 10221621
21:00+8ююв410775 0.0 1022166
10 мая, пн
пн1000:00+6ю412805 0.0 1023208
03:00+6ююв412795 0.0 1024225
06:00+5ююв411835 0.0 1025195
09:00+11ююв611695 0.0 1025394
12:00+15ююв79574 0.0 1025996
15:00+17ююв795311 0.0 10241261
18:00+16ююв7106215 0.0 10231046
21:00+11юв51276100 0.0 1024242
11 мая, вт
вт1100:00+9юв51482100 0.0 1025264
03:00+8юв6158098 0.0 1025332
06:00+7юв614845 0.0 1025288
09:00+12ююв713675 0.0 1024524
12:00+16ююв810531 0.0 1024901
15:00+18юв810470 0.0 10221103
18:00+18юв610560 0.0 10211093
21:00+12юв49760 0.0 1021148